Location: Kitchener
(43.2612°N, 80.5078°W)
Time: 23:19:14
(UTC+02:00)

ISS - Visible Passes

Search period start: 18 October 2019 00:00
Search period end: 27 October 2019 23:00
Orbit: 411 x 421 km, 51.6° (Epoch: 19 October)

Date Brightness Start Highest point End Pass type
(mag) Time Alt. Az. Time Alt. Az. Time Alt. Az.
22 Oct -0.7 13:01:29 10° SSE 13:03:29 15° SE 13:05:28 10° E visible
24 Oct -2.3 12:59:36 10° SSW 13:02:46 38° SE 13:05:55 10° ENE visible
25 Oct -1.5 12:11:35 10° S 12:14:18 23° SE 12:17:01 10° E visible
26 Oct -0.9 11:25:39 14° SE 11:25:52 14° SE 11:27:39 10° E visible
26 Oct -3.8 12:58:49 10° WSW 13:02:11 81° NNW 13:05:34 10° NE visible
27 Oct -3.4 11:12:34 39° SSW 11:13:35 60° SE 11:16:55 10° ENE visible
